Location: Newark
(20.1720°N, 90.0102°W)
Time: 09:42:50
(UTC+00:00)

Envisat - Pass Details

Date: 31 August 2019
Orbit: 764 x 766 km, 98.1° (Epoch: 22 October)

Event Time Altitude Azimuth Distance (km) Brightness Sun altitude
Rises 01:36:34 0° 208° (SSW) 3,218 6.4 -18.9°
Reaches altitude 10° 01:40:02 10° 233° (SW) 2,295 5.9 -19.7°
Maximum altitude 01:42:33 14° 263° (W) 2,043 6.1 -20.3°
Drops below altitude 10° 01:45:04 10° 293° (WNW) 2,299 6.7 -20.8°
Sets 01:48:35 0° 319° (NW) 3,227 7.2 -21.6°
